RH
54 61 62 62 66 67 70 75 75 76 75 75 74 75 75 77 78 79 76 81 80 74
65 66 70 67 72 78 77 68 76 79 82 81 80 79 80 84 84 83 80 76 75 78
77 72 73 75 79 80 79 80 81 83 84 82 84 85 86 88 85 87 83 76 84 81
86 83 78 83 80 80 79 81 83 82 84 85 86 87 91 92 88 89 88 85 84 80
90 89 93 87 88 81 83 79 81 82 83 84 84 85 90 89 84 88 87 86 86 84
91 92 93 92 86 90 89 86 86 78 84 82 80 82 83 85 86 87 88 87 88 86
90 91 91 88 90 90 93 93 88 85 85 81 81 75 77 76 81 84 81 81 83 86
68 84 90 90 90 90 93 90 90 90 87 84 78 69 78 77 82 84 86 84 81 82
57 60 79 90 94 95 92 93 96 92 93 90 72 72 70 67 86 95 94 93 88 92
59 63 68 76 87 93 94 96 93 94 94 94 88 82 71 69 79 93 94 95 88 81
67 72 69 72 79 93 97 96 95 94 94 95 86 80 71 71 78 94 91 91 92 92
78 83 78 82 85 88 96 96 96 93 94 97 94 86 76 67 78 82 83 77 83 87
88 94 95 89 94 92 97 93 91 95 95 96 92 85 76 71 77 92 80 73 78 74
89 95 91 95 96 96 95 93 97 95 94 96 92 95 80 70 74 83 84 80 77 76
Wind_Speed
5 3 3 3 2 1 1 2 2 3 2 4 3 4 4 3 3 4 3 5 4 4
5 4 4 3 2 1 2 3 4 4 4 5 5 5 4 3 4 5 5 5 6 6
6 4 3 2 3 3 4 4 4 5 5 5 5 5 5 4 4 5 5 5 6 7
4 4 3 3 4 4 4 5 5 5 5 5 5 5 5 5 6 7 7 7 7 9
4 3 3 4 5 5 5 5 6 6 6 6 6 6 5 6 6 6 8 8 8 10
5 5 5 6 6 5 5 5 5 6 6 6 6 6 6 8 8 8 9 10 9 11
5 5 5 5 5 5 4 5 5 5 5 6 6 8 8 9 9 10 10 11 11 12
5 5 4 5 5 4 4 4 5 5 5 5 6 7 8 10 11 11 11 11 12 12
4 4 5 4 4 4 4 4 3 4 4 6 7 14 18 16 9 9 11 11 12 10
4 4 3 3 4 4 4 3 5 5 5 7 7 16 18 19 10 9 8 8 10 10
3 2 2 3 4 3 3 3 4 5 6 7 8 17 18 19 10 8 9 9 10 10
2 2 3 4 4 4 3 3 4 6 7 6 8 18 18 16 8 8 9 9 10 10
1 2 3 4 4 3 3 5 5 7 6 11 9 17 19 16 7 6 7 9 9 17
2 3 4 4 2 3 5 6 5 7 7 7 9 10 18 18 8 6 7 7 7 7
Wind_Direction
150 163 170 171 169 176 233 261 283 280 269 285 286 289 287 274 271 262 255 263 262 263
155 167 174 158 135 219 264 263 246 249 264 270 275 269 271 264 267 266 259 256 256 253
166 163 151 155 213 222 246 249 261 260 255 257 257 259 258 253 252 252 258 266 247 250
156 154 171 201 227 231 235 240 249 250 254 254 250 247 245 244 254 253 253 250 257 259
145 148 176 223 230 231 233 237 244 252 255 256 250 243 242 249 267 253 258 257 252 257
182 178 210 226 233 230 236 242 252 255 252 261 264 262 249 250 255 254 252 253 247 251
189 186 209 225 227 227 226 237 248 249 255 264 270 276 269 264 258 254 254 251 247 247
182 189 211 223 226 231 224 237 250 260 262 267 273 270 252 247 250 252 254 254 257 252
189 201 215 218 210 214 245 255 241 270 261 276 280 282 285 285 269 252 256 259 259 245
203 217 221 223 227 240 248 233 271 265 266 266 269 284 286 286 280 268 258 253 262 267
191 211 258 265 262 245 236 247 268 274 271 271 278 288 292 289 283 274 267 262 261 262
154 251 279 282 285 281 265 281 263 266 271 261 274 290 292 295 285 281 272 268 259 258
204 244 263 277 275 265 237 268 275 276 263 267 281 290 292 290 275 267 272 273 260 273
277 267 263 261 235 256 269 273 272 279 276 263 264 272 290 290 282 268 272 271 269 266